Location: Bagnara
(41.0500°N, 14.7833°E)
Time: 08:53:14
(UTC+00:00)

Cosmos 1271 Rocket - Pass Details

Date: 20 June 2021
Orbit: 498 x 544 km, 81.2° (Epoch: 03 August)

Event Time Altitude Azimuth Distance (km) Brightness Sun altitude
Rises 02:14:57 0° 344° (NNW) 2,597 6.7 -11.6°
Reaches altitude 10° 02:17:07 10° 339° (NNW) 1,711 5.7 -11.3°
Maximum altitude 02:20:44 49° 265° (W) 655 2.9 -10.8°
Drops below altitude 10° 02:24:22 10° 189° (S) 1,710 4.9 -10.3°
Enters shadow 02:24:34 - 189° (S) 1,795 5.0 -10.3°
